Location: Kimberly
(42.5380°N, 114.3640°W)
Time: 13:36:04
(UTC-06:00)

OTV 5 (USA 277) - Visible Passes

Search period start: 23 September 2018 00:00
Search period end: 03 October 2018 00:00
Orbit: 387 x 394 km, 54.5° (Epoch: 08 September)

Date Brightness Start Highest point End Pass type
(mag) Time Alt. Az. Time Alt. Az. Time Alt. Az.
26 Sep ? 06:46:25 10° SSW 06:49:25 40° SE 06:52:27 10° ENE visible
27 Sep ? 05:51:20 12° S 05:53:15 18° SE 05:55:31 10° E visible
28 Sep ? 06:30:08 16° SW 06:32:34 83° SE 06:35:46 10° NE visible
29 Sep ? 05:36:22 34° SE 05:36:22 34° SE 05:39:14 10° ENE visible
30 Sep ? 06:14:52 37° W 06:15:46 51° NW 06:18:54 10° NE visible
01 Oct ? 05:20:53 28° ENE 05:20:53 28° ENE 05:22:36 10° NE visible
01 Oct ? 06:53:17 10° WNW 06:55:38 19° NNW 06:58:01 10° NNE visible
02 Oct ? 05:59:14 30° NNW 05:59:14 30° NNW 06:01:56 10° NE visible
